{"data":{"norad_id":59917,"intl_designator":"2024-105A","name":"2024-105A","alt_names":[],"object_type":"PAYLOAD","status":"ACTIVE","operator":null,"country":"PRC","launch_date":"2024-05-30","launch_site_code":"JSC","launch_vehicle":null,"mission":null,"orbit_class":"UNKNOWN","rcs_meters":null,"size_class":null,"mass_kg":null,"dimensions":null,"purposes":[],"wikipedia_slug":null,"has_3d_model":false,"image_url":null,"decayed_at":null,"tle_current":{"epoch":"2026-05-25T04:30:53.987040Z","epoch_age_seconds":52178,"freshness":"FRESH","line1":"1 59917U 24105A   26145.18812485  .00002872  00000+0  14886-3 0  9996","line2":"2 59917  97.5841 160.4102 0011934 313.3650  46.6588 15.16941024109549","mean_motion":15.16941024,"eccentricity":0.0011934,"inclination_deg":97.5841,"raan_deg":160.4102,"arg_perigee_deg":313.365,"mean_anomaly_deg":46.6588,"bstar":0.00014886,"rev_number":10954,"period_min":94.927882970881,"perigee_km":506.86568207914,"apogee_km":523.31844120347,"semimajor_km":6893.2290616413,"source":"CELESTRAK","updated_at":"2026-05-25T13:38:01.747366Z"}}}